period_start,C,m1,H,J0,J1,J2,J3,J4,J5,JA,JB,JC,JD,JJ,JK,JN,#
2013-09-17 00:00:53,-0.01,0.02,0.00,25.00,26.97,29.50,6.07,29.46,1022.00,2052.96,3496.99,3358.00,3647.20,350.55,324.01,8.02,0000 0000 0000 0000 000000
2013-09-17 00:01:53,0.00,0.02,0.00,24.99,26.97,29.47,5.77,29.29,1022.00,2052.93,3496.98,3358.00,3647.22,349.36,322.92,8.03,0000 0000 0000 0000 000000
2013-09-17 00:02:53,-0.04,0.02,0.00,25.00,26.97,29.57,5.86,29.63,1021.99,2052.87,3496.98,3358.00,3647.12,349.20,322.76,8.03,0000 0000 0000 0000 000000
2013-09-17 00:03:54,-0.01,0.02,0.00,24.99,26.97,29.54,6.08,29.63,1022.01,2052.91,3496.98,3358.00,3647.07,350.69,324.09,8.04,0000 0000 0000 0000 000000
2013-09-17 00:04:54,0.04,0.02,0.00,25.00,26.97,29.53,5.84,29.71,1022.00,2052.91,3496.98,3358.00,3647.03,349.86,323.81,8.05,0000 0000 0000 0000 000000
2013-09-17 00:05:54,0.00,0.02,0.00,24.99,26.97,29.57,6.02,29.71,1022.01,2052.89,3496.98,3358.01,3647.04,350.16,323.66,8.05,0000 0000 0000 0000 000000
2013-09-17 00:06:55,-0.02,0.02,0.00,24.99,26.97,29.55,6.09,29.75,1022.00,2052.95,3496.97,3358.02,3647.10,351.25,324.78,8.06,0000 0000 0000 0000 000000
2013-09-17 00:07:55,0.04,0.02,0.00,25.00,26.97,29.55,5.97,29.58,1022.02,2052.97,3496.97,3358.00,3647.14,350.24,323.53,8.06,0000 0000 0000 0000 000000
2013-09-17 00:08:55,0.00,0.02,0.00,25.01,26.97,29.53,5.91,29.46,1022.01,2052.97,3496.96,3358.00,3647.08,349.34,322.88,8.07,0000 0000 0000 0000 000000
2013-09-17 00:09:55,0.02,0.02,0.00,25.01,26.97,29.50,6.03,29.63,1022.01,2052.99,3496.97,3358.00,3647.09,350.83,324.25,8.08,0000 0000 0000 0000 000000
2013-09-17 00:10:56,0.00,0.02,0.00,25.02,26.97,29.48,5.97,29.50,1021.99,2052.97,3496.98,3358.00,3647.09,350.03,323.69,8.08,0000 0000 0000 0000 000000
2013-09-17 00:11:56,-0.01,0.02,0.00,25.03,26.97,29.50,6.05,29.63,1022.00,2052.92,3496.99,3358.01,3647.05,350.37,323.74,8.09,0000 0000 0000 0000 000000
2013-09-17 00:12:56,-0.04,0.02,0.00,25.02,26.98,29.52,6.12,29.46,1021.99,2052.90,3496.98,3358.01,3647.04,349.79,323.28,8.09,0000 0000 0000 0000 000000
2013-09-17 00:13:56,0.00,0.02,0.00,25.02,26.98,29.59,5.88,29.54,1021.99,2052.90,3496.89,3358.00,3647.02,350.50,323.54,8.10,0000 0000 0000 0000 000000
2013-09-17 00:14:56,0.02,0.02,0.00,25.02,26.98,29.55,5.82,29.33,1021.99,2052.92,3496.71,3358.00,3647.02,349.29,322.77,8.11,0000 0000 0000 0000 000000
2013-09-17 00:15:56,0.05,0.02,0.00,25.00,26.98,29.54,6.08,29.67,1021.99,2052.92,3496.60,3358.00,3647.01,350.38,323.87,8.11,0000 0000 0000 0000 000000
2013-09-17 00:16:57,0.00,0.02,0.00,25.01,26.98,29.51,5.96,29.38,1021.99,2052.94,3496.47,3358.00,3647.01,350.20,323.88,8.12,0000 0000 0000 0000 000000
2013-09-17 00:17:57,0.03,0.02,0.00,24.99,26.98,29.53,5.91,29.54,1021.99,2052.95,3496.63,3358.00,3647.02,349.68,323.45,8.12,0000 0000 0000 0000 000000
2013-09-17 00:18:57,-0.01,0.02,0.00,24.98,26.98,29.51,5.82,29.21,1021.99,2052.90,3496.42,3358.00,3647.00,349.19,322.76,8.13,0000 0000 0000 0000 000000
2013-09-17 00:19:57,-0.01,0.02,0.00,24.99,26.98,29.51,5.88,29.46,1021.99,2052.86,3496.43,3358.00,3647.00,349.23,322.80,8.13,0000 0000 0000 0000 000000
2013-09-17 00:20:57,-0.02,0.02,0.00,24.98,26.98,29.50,6.06,29.42,1021.99,2052.92,3496.52,3358.00,3647.03,349.89,323.42,8.14,0000 0000 0000 0000 000000
2013-09-17 00:21:57,0.03,0.02,0.00,25.00,26.98,29.50,5.94,29.42,1021.99,2052.92,3496.40,3358.00,3647.01,349.91,323.41,8.15,0000 0000 0000 0000 000000
2013-09-17 00:22:58,0.02,0.02,0.00,25.01,26.98,29.59,5.78,29.63,1021.99,2052.89,3496.28,3358.00,3647.00,350.02,323.59,8.15,0000 0000 0000 0000 000000
2013-09-17 00:23:58,0.00,0.02,0.00,25.01,26.98,29.52,6.15,29.54,1021.99,2052.82,3496.19,3358.00,3647.00,350.59,323.85,8.16,0000 0000 0000 0000 000000
2013-09-17 00:24:58,-0.08,0.02,0.00,25.01,26.98,29.54,6.07,29.58,1021.99,2052.81,3496.31,3358.00,3647.00,349.79,323.29,8.16,0000 0000 0000 0000 000000
2013-09-17 00:25:58,0.02,0.02,0.00,25.00,26.99,29.51,6.03,29.46,1021.99,2052.78,3496.24,3358.00,3647.00,350.18,323.65,8.17,0000 0000 0000 0000 000000
2013-09-17 00:26:58,-0.02,0.02,0.00,25.03,26.99,29.54,5.80,29.50,1021.99,2052.80,3496.20,3358.00,3647.00,348.80,322.35,8.18,0000 0000 0000 0000 000000
2013-09-17 00:27:58,0.00,0.02,0.00,25.05,26.99,29.55,5.76,29.33,1021.99,2052.79,3496.21,3358.00,3647.00,349.58,323.05,8.18,0000 0000 0000 0000 000000
2013-09-17 00:28:59,-0.02,0.02,0.00,25.02,26.99,29.51,5.94,29.38,1021.99,2052.80,3496.17,3358.00,3647.00,350.36,323.81,8.19,0000 0000 0000 0000 000000
2013-09-17 00:29:59,0.06,0.02,0.00,25.00,26.99,29.53,5.88,29.50,1021.99,2052.78,3496.14,3358.00,3647.00,348.61,322.21,8.19,0000 0000 0000 0000 000000
2013-09-17 00:30:59,-0.01,0.02,0.00,25.00,26.99,29.50,5.71,29.50,1021.99,2052.88,3496.11,3358.00,3647.00,348.96,322.52,8.20,0000 0000 0000 0000 000000
2013-09-17 00:31:59,0.07,0.02,0.00,25.01,26.99,29.52,5.92,29.42,1021.99,2052.92,3496.06,3358.00,3647.00,350.24,323.71,8.20,0000 0000 0000 0000 000000
2013-09-17 00:33:00,0.03,0.02,0.00,25.01,26.99,29.58,5.88,29.42,1021.99,2052.94,3496.04,3358.00,3647.00,349.88,323.37,8.21,0000 0000 0000 0000 000000
2013-09-17 00:34:00,0.02,0.02,0.00,25.01,27.00,29.51,6.02,29.50,1021.99,2052.90,3496.03,3358.00,3647.00,350.03,323.51,8.22,0000 0000 0000 0000 000000
2013-09-17 00:35:00,-0.04,0.02,0.00,25.01,27.00,29.50,5.96,29.38,1021.99,2052.89,3496.02,3357.99,3647.00,350.10,323.63,8.22,0000 0000 0000 0000 000000
2013-09-17 00:36:00,0.00,0.02,0.00,25.02,27.00,29.56,5.99,29.38,1021.99,2052.87,3496.02,3357.99,3647.00,349.46,322.98,8.23,0000 0000 0000 0000 000000
2013-09-17 00:37:00,0.00,0.02,0.00,25.04,27.00,29.56,5.97,29.42,1021.99,2052.93,3496.05,3357.98,3647.00,349.88,323.35,8.23,0000 0000 0000 0000 000000
2013-09-17 00:38:01,0.06,0.02,0.00,25.03,27.00,29.56,5.96,29.46,1021.98,2052.91,3496.03,3357.99,3647.00,350.42,323.84,8.24,0000 0000 0000 0000 000000
2013-09-17 00:39:01,-0.05,0.02,0.00,25.04,27.00,29.55,6.01,29.54,1021.95,2052.87,3496.01,3357.99,3647.00,350.37,324.00,8.25,0000 0000 0000 0000 000000
2013-09-17 00:40:01,0.00,0.02,0.00,25.03,27.00,29.55,5.83,29.42,1021.94,2052.89,3496.01,3357.99,3647.00,350.01,323.45,8.25,0000 0000 0000 0000 000000
2013-09-17 00:41:01,0.01,0.02,0.00,25.05,27.00,29.54,6.01,29.50,1021.95,2052.93,3496.00,3357.99,3647.00,350.82,324.25,8.26,0000 0000 0000 0000 000000
2013-09-17 00:42:01,0.03,0.02,0.00,25.05,27.00,29.58,5.88,29.54,1021.91,2052.88,3496.00,3357.99,3647.00,349.37,322.77,8.26,0000 0000 0000 0000 000000
2013-09-17 00:43:02,-0.06,0.02,0.00,25.03,27.00,29.52,6.07,29.67,1021.94,2052.89,3496.00,3357.99,3647.00,350.66,324.05,8.27,0000 0000 0000 0000 000000
2013-09-17 00:44:02,0.01,0.02,0.00,25.04,27.00,29.56,6.08,29.54,1021.90,2052.79,3496.00,3357.99,3647.00,351.04,324.37,8.27,0000 0000 0000 0000 000000
2013-09-17 00:45:02,-0.07,0.02,0.00,25.05,27.00,29.54,5.84,29.42,1021.84,2052.72,3496.01,3357.99,3647.00,350.03,323.64,8.28,0000 0000 0000 0000 000000
2013-09-17 00:46:02,-0.04,0.02,0.00,25.05,27.00,29.64,5.86,29.42,1021.89,2052.76,3496.00,3357.99,3647.00,350.34,323.73,8.29,0000 0000 0000 0000 000000
2013-09-17 00:47:02,0.04,0.02,0.00,25.05,27.00,29.56,5.80,29.38,1021.88,2052.83,3496.00,3357.99,3647.00,349.47,322.92,8.29,0000 0000 0000 0000 000000
2013-09-17 00:48:03,0.04,0.02,0.00,25.04,27.00,29.52,5.92,29.33,1021.90,2052.84,3496.00,3357.99,3647.00,349.64,323.26,8.30,0000 0000 0000 0000 000000
2013-09-17 00:49:03,-0.02,0.02,0.00,25.05,27.00,29.49,6.07,29.58,1021.84,2052.71,3496.00,3357.99,3647.00,351.32,324.43,8.30,0000 0000 0000 0000 000000
2013-09-17 00:50:03,-0.07,0.02,0.00,25.06,27.00,29.54,5.93,29.54,1021.81,2052.76,3496.00,3357.98,3646.98,349.90,323.28,8.31,0000 0000 0000 0000 000000
2013-09-17 00:51:04,0.05,0.02,0.00,25.06,27.00,29.60,5.98,29.50,1021.81,2052.72,3496.00,3357.99,3646.99,350.56,324.03,8.32,0000 0000 0000 0000 000000
2013-09-17 00:52:04,-0.02,0.02,0.00,25.05,27.00,29.55,5.81,29.38,1021.86,2052.76,3496.00,3357.98,3646.99,349.76,323.10,8.32,0000 0000 0000 0000 000000
2013-09-17 00:53:04,0.03,0.02,0.00,25.05,27.00,29.51,6.05,29.58,1021.87,2052.72,3496.00,3357.99,3646.99,350.59,323.94,8.33,0000 0000 0000 0000 000000
2013-09-17 00:54:05,-0.04,0.02,0.00,25.06,27.00,29.51,5.86,29.46,1021.86,2052.63,3496.00,3357.99,3646.98,350.13,323.51,8.33,0000 0000 0000 0000 000000
2013-09-17 00:55:05,-0.03,0.02,0.00,25.06,27.00,29.57,5.88,29.50,1021.86,2052.64,3496.00,3357.99,3646.98,349.27,323.49,8.34,0000 0000 0000 0000 000000
2013-09-17 00:56:05,-0.02,0.02,0.00,25.05,27.00,29.53,5.87,29.54,1021.83,2052.64,3496.00,3357.99,3646.96,349.97,323.36,8.34,0000 0000 0000 0000 000000
2013-09-17 00:57:05,-0.01,0.02,0.00,25.03,27.00,29.57,5.82,29.46,1021.78,2052.61,3496.00,3357.99,3646.97,349.57,322.99,8.35,0000 0000 0000 0000 000000
2013-09-17 00:58:06,-0.02,0.02,0.00,25.04,27.00,29.55,5.88,29.42,1021.84,2052.64,3496.00,3357.99,3646.97,349.37,322.83,8.36,0000 0000 0000 0000 000000
2013-09-17 00:59:06,0.04,0.02,0.00,25.05,27.00,29.57,5.84,29.33,1021.86,2052.63,3496.00,3357.99,3646.96,349.83,323.25,8.36,0000 0000 0000 0000 000000
2013-09-17 01:00:06,-0.02,0.02,0.00,25.03,27.00,29.61,5.77,29.29,1021.91,2052.65,3496.00,3357.99,3646.98,349.92,323.42,8.37,0000 0000 0000 0000 000000
2013-09-17 01:01:06,0.01,0.02,0.00,25.03,27.00,29.60,5.83,29.29,1021.88,2052.57,3495.99,3357.99,3646.97,349.99,323.42,8.37,0000 0000 0000 0000 000000
2013-09-17 01:02:06,-0.05,0.02,0.00,25.05,27.00,29.56,5.89,29.33,1021.89,2052.52,3495.98,3357.98,3646.91,349.58,323.03,8.38,0000 0000 0000 0000 000000
2013-09-17 01:03:07,-0.01,0.02,0.00,25.05,27.00,29.55,5.97,29.46,1021.87,2052.51,3495.99,3357.99,3646.93,350.12,323.76,8.39,0000 0000 0000 0000 000000
2013-09-17 01:04:07,-0.03,0.02,0.00,25.06,27.00,29.50,6.08,29.58,1021.78,2052.49,3495.98,3357.98,3646.86,350.68,323.99,8.39,0000 0000 0000 0000 000000
2013-09-17 01:05:07,0.00,0.02,0.00,25.06,27.00,29.58,5.93,29.50,1021.81,2052.37,3495.96,3357.96,3646.71,350.24,323.56,8.40,0000 0000 0000 0000 000000
2013-09-17 01:06:07,-0.03,0.02,0.00,25.04,27.00,29.57,5.94,29.46,1021.78,2052.33,3495.95,3357.98,3646.69,350.30,323.66,8.40,0000 0000 0000 0000 000000
2013-09-17 01:07:07,-0.03,0.02,0.00,25.06,27.00,29.55,6.02,29.50,1021.80,2052.34,3495.94,3357.98,3646.71,350.39,323.93,8.41,0000 0000 0000 0000 000000
2013-09-17 01:08:08,-0.00,0.02,0.00,25.07,27.00,29.60,6.08,29.46,1021.70,2052.40,3495.93,3357.99,3646.78,350.33,323.55,8.41,0000 0000 0000 0000 000000
2013-09-17 01:09:08,0.05,0.02,0.00,25.06,27.00,29.54,5.97,29.46,1021.70,2052.47,3495.94,3357.99,3646.79,350.07,323.40,8.42,0000 0000 0000 0000 000000
2013-09-17 01:10:08,0.06,0.02,0.00,25.08,27.01,29.57,5.92,29.54,1021.67,2052.50,3495.96,3357.99,3646.75,349.95,323.26,8.43,0000 0000 0000 0000 000000
2013-09-17 01:11:08,-0.01,0.02,0.00,25.05,27.01,29.59,5.97,29.54,1021.68,2052.40,3495.92,3357.97,3646.61,350.14,323.46,8.43,0000 0000 0000 0000 000000
2013-09-17 01:12:08,-0.04,0.02,0.00,25.08,27.01,29.52,6.00,29.46,1021.60,2052.24,3495.84,3357.96,3646.36,350.62,323.86,8.44,0000 0000 0000 0000 000000
2013-09-17 01:13:09,-0.07,0.02,0.00,25.06,27.02,29.54,5.77,29.33,1021.60,2052.18,3495.72,3357.94,3646.20,349.76,323.08,8.44,0000 0000 0000 0000 000000
2013-09-17 01:14:09,-0.01,0.02,0.00,25.08,27.02,29.61,5.92,29.42,1021.61,2052.19,3495.77,3357.94,3646.15,350.74,323.73,8.45,0000 0000 0000 0000 000000
2013-09-17 01:15:09,0.03,0.02,0.00,25.07,27.02,29.57,5.92,29.71,1021.65,2052.27,3495.78,3357.94,3646.16,349.20,322.56,8.46,0000 0000 0000 0000 000000
2013-09-17 01:16:10,0.05,0.02,0.00,25.07,27.02,29.60,5.63,29.54,1021.61,2052.37,3495.70,3357.97,3646.19,349.12,322.48,8.46,0000 0000 0000 0000 000000
2013-09-17 01:17:10,0.06,0.02,0.00,25.06,27.02,29.60,5.80,29.38,1021.64,2052.36,3495.65,3357.98,3646.17,349.30,322.67,8.47,0000 0000 0000 0000 000000
2013-09-17 01:18:10,0.00,0.02,0.00,25.07,27.02,29.59,6.05,29.46,1021.60,2052.32,3495.52,3357.97,3646.17,349.82,323.21,8.47,0000 0000 0000 0000 000000
2013-09-17 01:19:10,0.01,0.02,0.00,25.07,27.02,29.65,6.05,29.46,1021.63,2052.33,3495.57,3357.96,3646.13,350.52,324.07,8.48,0000 0000 0000 0000 000000
2013-09-17 01:20:10,-0.01,0.02,0.00,25.07,27.02,29.59,5.94,29.50,1021.69,2052.35,3495.69,3357.97,3646.18,350.49,323.77,8.49,0000 0000 0000 0000 000000
2013-09-17 01:21:11,0.02,0.02,0.00,25.08,27.02,29.54,5.71,29.25,1021.68,2052.38,3495.58,3357.98,3646.10,349.43,322.80,8.49,0000 0000 0000 0000 000000
2013-09-17 01:22:11,0.01,0.02,0.00,25.10,27.02,29.55,5.91,29.42,1021.74,2052.40,3495.52,3357.98,3646.09,350.75,324.01,8.50,0000 0000 0000 0000 000000
2013-09-17 01:23:11,0.01,0.02,0.00,25.09,27.02,29.59,5.89,29.42,1021.74,2052.35,3495.61,3357.99,3646.09,349.75,323.35,8.50,0000 0000 0000 0000 000000
2013-09-17 01:24:12,-0.01,0.02,0.00,25.09,27.02,29.57,5.85,29.38,1021.74,2052.31,3495.60,3357.98,3646.09,349.31,323.02,8.51,0000 0000 0000 0000 000000
2013-09-17 01:25:12,-0.03,0.02,0.00,25.10,27.02,29.61,5.87,29.42,1021.63,2052.34,3495.39,3357.98,3646.06,349.55,322.69,8.51,0000 0000 0000 0000 000000
2013-09-17 01:26:12,0.06,0.02,0.00,25.08,27.02,29.52,5.97,29.46,1021.66,2052.38,3495.38,3357.98,3646.04,350.38,323.47,8.52,0000 0000 0000 0000 000000
2013-09-17 01:27:12,0.02,0.02,0.00,25.08,27.02,29.64,6.04,29.38,1021.67,2052.31,3495.26,3357.97,3646.03,349.83,323.15,8.53,0000 0000 0000 0000 000000
2013-09-17 01:28:12,-0.01,0.02,0.00,25.08,27.02,29.62,5.77,29.33,1021.63,2052.20,3495.11,3357.97,3646.01,350.15,323.44,8.53,0000 0000 0000 0000 000000
2013-09-17 01:29:13,-0.06,0.02,0.00,25.09,27.02,29.56,5.69,29.29,1021.59,2052.15,3495.09,3357.97,3646.01,349.51,322.82,8.54,0000 0000 0000 0000 000000
2013-09-17 01:30:13,-0.02,0.02,0.00,25.08,27.02,29.65,5.88,29.38,1021.57,2052.16,3495.07,3357.97,3646.03,349.60,323.54,8.54,0000 0000 0000 0000 000000
2013-09-17 01:31:13,-0.01,0.02,0.00,25.07,27.02,29.56,6.03,29.38,1021.56,2052.11,3495.03,3357.98,3646.01,350.31,323.57,8.55,0000 0000 0000 0000 000000
2013-09-17 01:32:13,-0.03,0.02,0.00,25.07,27.02,29.62,5.79,29.50,1021.54,2052.14,3495.02,3357.98,3646.00,349.56,322.88,8.56,0000 0000 0000 0000 000000
2013-09-17 01:33:13,0.01,0.02,0.00,25.08,27.02,29.56,5.71,29.38,1021.52,2052.12,3495.00,3357.94,3646.00,348.79,322.14,8.56,0000 0000 0000 0000 000000
2013-09-17 01:34:14,-0.02,0.02,0.00,25.06,27.02,29.61,5.93,29.54,1021.52,2052.08,3495.02,3357.95,3646.00,349.70,323.12,8.57,0000 0000 0000 0000 000000
2013-09-17 01:35:14,-0.00,0.02,0.00,25.08,27.02,29.58,5.72,29.38,1021.52,2052.13,3495.02,3357.95,3646.00,349.73,323.27,8.57,0000 0000 0000 0000 000000
2013-09-17 01:36:14,0.02,0.02,0.00,25.09,27.02,29.61,5.86,29.58,1021.50,2052.12,3495.01,3357.92,3646.00,350.85,323.96,8.58,0000 0000 0000 0000 000000
2013-09-17 01:37:14,0.01,0.02,0.00,25.08,27.02,29.59,6.11,29.67,1021.50,2052.14,3495.00,3357.92,3646.00,351.07,324.24,8.58,0000 0000 0000 0000 000000
2013-09-17 01:38:15,0.01,0.02,0.00,25.08,27.02,29.53,5.75,29.21,1021.51,2052.13,3495.00,3357.92,3646.00,349.27,322.59,8.59,0000 0000 0000 0000 000000
2013-09-17 01:39:15,0.01,0.02,0.00,25.10,27.02,29.60,6.02,29.38,1021.51,2052.17,3495.00,3357.93,3646.00,350.19,323.41,8.60,0000 0000 0000 0000 000000
2013-09-17 01:40:15,0.01,0.02,0.00,25.10,27.02,29.57,5.76,29.33,1021.51,2052.13,3495.00,3357.94,3646.00,349.25,322.54,8.60,0000 0000 0000 0000 000000
2013-09-17 01:41:16,-0.01,0.02,0.00,25.09,27.03,29.63,6.07,29.71,1021.50,2052.21,3495.00,3357.97,3646.00,350.56,323.75,8.61,0000 0000 0000 0000 000000
2013-09-17 01:42:16,0.04,0.02,0.00,25.09,27.03,29.58,5.91,29.92,1021.51,2052.22,3495.00,3357.98,3646.00,350.26,323.48,8.61,0000 0000 0000 0000 000000
2013-09-17 01:43:16,0.01,0.02,0.00,25.10,27.04,29.67,5.80,29.83,1021.51,2052.26,3495.00,3357.95,3646.00,349.48,322.81,8.62,0000 0000 0000 0000 000000
2013-09-17 01:44:16,0.02,0.02,0.00,25.09,27.04,29.58,6.11,29.63,1021.53,2052.18,3495.00,3357.86,3646.00,350.94,324.07,8.63,0000 0000 0000 0000 000000
2013-09-17 01:45:17,-0.04,0.02,0.00,25.08,27.04,29.57,5.98,29.71,1021.51,2052.14,3494.99,3357.89,3646.00,350.61,323.61,8.63,0000 0000 0000 0000 000000
2013-09-17 01:46:17,-0.02,0.02,0.00,25.11,27.04,29.55,5.93,29.46,1021.51,2052.12,3494.99,3357.92,3646.00,350.02,322.99,8.64,0000 0000 0000 0000 000000
2013-09-17 01:47:17,-0.02,0.02,0.00,25.09,27.04,29.59,6.02,29.50,1021.54,2052.16,3494.99,3357.85,3646.00,350.12,323.63,8.64,0000 0000 0000 0000 000000
2013-09-17 01:48:17,0.05,0.02,0.00,25.09,27.05,29.59,6.02,29.38,1021.51,2052.21,3494.97,3357.80,3645.99,349.75,323.02,8.65,0000 0000 0000 0000 000000
2013-09-17 01:49:18,0.04,0.02,0.00,25.10,27.05,29.58,5.97,29.42,1021.50,2052.14,3494.96,3357.72,3645.99,349.43,322.97,8.66,0000 0000 0000 0000 000000
2013-09-17 01:50:18,-0.05,0.02,0.00,25.12,27.05,29.61,6.02,29.46,1021.51,2052.10,3494.95,3357.74,3645.98,350.23,323.43,8.66,0000 0000 0000 0000 000000
2013-09-17 01:51:18,-0.03,0.02,0.00,25.12,27.05,29.59,6.17,29.58,1021.53,2052.06,3494.96,3357.66,3645.98,351.01,324.16,8.67,0000 0000 0000 0000 000000
2013-09-17 01:52:19,0.00,0.02,0.00,25.10,27.05,29.59,6.01,29.54,1021.50,2052.08,3494.96,3357.78,3645.99,350.25,322.97,8.67,0000 0000 0000 0000 000000
2013-09-17 01:53:19,0.00,0.02,0.00,25.11,27.05,29.65,5.88,29.46,1021.50,2052.12,3494.97,3357.82,3645.98,350.06,323.32,8.68,0000 0000 0000 0000 000000
2013-09-17 01:54:19,-0.00,0.02,0.00,25.12,27.05,29.61,5.98,29.46,1021.50,2052.07,3494.95,3357.81,3645.98,350.23,323.47,8.68,0000 0000 0000 0000 000000
2013-09-17 01:55:20,-0.02,0.02,0.00,25.14,27.05,29.64,5.90,29.42,1021.51,2052.07,3494.94,3357.73,3645.95,349.91,323.12,8.69,0000 0000 0000 0000 000000
2013-09-17 01:56:20,0.02,0.02,0.00,25.13,27.05,29.59,6.08,29.58,1021.51,2052.17,3494.96,3357.80,3645.97,350.40,323.79,8.70,0000 0000 0000 0000 000000
2013-09-17 01:57:20,0.04,0.02,0.00,25.12,27.05,29.59,6.02,29.54,1021.50,2052.16,3494.98,3357.82,3645.98,350.74,323.90,8.70,0000 0000 0000 0000 000000
2013-09-17 01:58:20,0.00,0.02,0.00,25.11,27.05,29.58,5.92,29.46,1021.50,2052.15,3494.98,3357.83,3645.97,350.16,323.15,8.71,0000 0000 0000 0000 000000
2013-09-17 01:59:20,-0.02,0.02,0.00,25.11,27.05,29.62,5.67,29.50,1021.50,2052.17,3494.97,3357.82,3645.96,348.65,321.98,8.71,0000 0000 0000 0000 000000
2013-09-17 02:00:21,0.01,0.02,0.00,25.11,27.05,29.59,5.72,29.38,1021.50,2052.19,3494.94,3357.78,3645.96,349.23,322.51,8.72,0000 0000 0000 0000 000000
2013-09-17 02:01:21,0.06,0.02,0.00,25.12,27.05,29.54,5.89,29.42,1021.50,2052.20,3494.94,3357.80,3645.97,350.53,323.47,8.73,0000 0000 0000 0000 000000
2013-09-17 02:02:21,-0.02,0.02,0.00,25.14,27.05,29.54,6.05,29.54,1021.50,2052.17,3494.89,3357.75,3645.92,350.47,323.90,8.73,0000 0000 0000 0000 000000
2013-09-17 02:03:22,0.01,0.02,0.00,25.15,27.05,29.66,6.08,29.54,1021.50,2052.13,3494.81,3357.67,3645.91,350.18,323.58,8.74,0000 0000 0000 0000 000000
2013-09-17 02:04:22,0.01,0.02,0.00,25.16,27.05,29.60,5.91,29.46,1021.50,2052.17,3494.79,3357.63,3645.88,350.16,323.06,8.74,0000 0000 0000 0000 000000
2013-09-17 02:05:22,0.02,0.02,0.00,25.14,27.05,29.64,6.03,29.46,1021.50,2052.11,3494.72,3357.49,3645.78,349.84,323.21,8.75,0000 0000 0000 0000 000000
2013-09-17 02:06:22,0.01,0.02,0.00,25.16,27.05,29.60,6.08,29.46,1021.50,2052.08,3494.51,3357.42,3645.69,350.21,323.50,8.75,0000 0000 0000 0000 000000
2013-09-17 02:07:23,0.01,0.02,0.00,25.14,27.06,29.57,5.92,29.50,1021.50,2052.04,3494.50,3357.35,3645.63,350.06,323.32,8.76,0000 0000 0000 0000 000000
2013-09-17 02:08:23,0.01,0.02,0.00,25.14,27.06,29.62,5.68,29.54,1021.50,2052.04,3494.63,3357.36,3645.49,349.56,322.79,8.77,0000 0000 0000 0000 000000
2013-09-17 02:09:23,0.01,0.02,0.00,25.16,27.06,29.60,5.75,29.38,1021.50,2052.04,3494.56,3357.32,3645.36,349.08,322.31,8.77,0000 0000 0000 0000 000000
2013-09-17 02:10:24,0.02,0.02,0.00,25.15,27.07,29.66,5.73,29.13,1021.50,2052.04,3494.44,3357.38,3645.43,348.44,321.74,8.78,0000 0000 0000 0000 000000
2013-09-17 02:11:24,-0.01,0.02,0.00,25.15,27.07,29.63,5.96,29.38,1021.50,2052.08,3494.41,3357.39,3645.53,350.39,323.89,8.78,0000 0000 0000 0000 000000
2013-09-17 02:12:24,0.01,0.02,0.00,25.16,27.07,29.62,5.92,29.33,1021.50,2052.08,3494.43,3357.42,3645.40,349.94,322.80,8.79,0000 0000 0000 0000 000000
2013-09-17 02:13:24,0.00,0.02,0.00,25.16,27.07,29.67,5.80,29.21,1021.49,2052.05,3494.34,3357.48,3645.39,349.52,322.72,8.80,0000 0000 0000 0000 000000
2013-09-17 02:14:25,0.01,0.02,0.00,25.17,27.07,29.67,5.89,29.21,1021.49,2052.05,3494.21,3357.39,3645.26,350.43,323.93,8.80,0000 0000 0000 0000 000000
2013-09-17 02:15:25,0.01,0.02,0.00,25.16,27.07,29.66,6.03,29.42,1021.48,2052.01,3494.17,3357.52,3645.21,350.78,323.88,8.81,0000 0000 0000 0000 000000
2013-09-17 02:16:25,-0.02,0.02,0.00,25.14,27.07,29.67,5.82,29.29,1021.49,2052.02,3494.13,3357.51,3645.17,349.20,322.45,8.81,0000 0000 0000 0000 000000
2013-09-17 02:17:26,0.03,0.02,0.00,25.15,27.07,29.63,5.98,29.50,1021.48,2052.05,3494.07,3357.36,3645.17,350.50,323.63,8.82,0000 0000 0000 0000 000000
2013-09-17 02:18:26,0.04,0.02,0.00,25.16,27.07,29.67,6.06,29.50,1021.49,2052.04,3494.04,3357.28,3645.18,350.89,323.68,8.82,0000 0000 0000 0000 000000
2013-09-17 02:19:26,0.01,0.02,0.00,25.15,27.07,29.59,6.02,29.58,1021.50,2052.06,3494.02,3357.27,3645.20,350.49,323.63,8.83,0000 0000 0000 0000 000000
2013-09-17 02:20:26,0.01,0.02,0.00,25.14,27.07,29.64,6.10,29.63,1021.49,2052.06,3494.02,3357.30,3645.11,350.97,323.83,8.84,0000 0000 0000 0000 000000
2013-09-17 02:21:27,0.01,0.02,0.00,25.14,27.07,29.65,6.13,29.71,1021.49,2052.09,3494.04,3357.25,3645.09,350.95,324.04,8.84,0000 0000 0000 0000 000000
2013-09-17 02:22:27,0.01,0.02,0.00,25.16,27.07,29.70,6.10,29.63,1021.49,2052.09,3494.03,3357.24,3645.09,350.63,323.56,8.85,0000 0000 0000 0000 000000
2013-09-17 02:23:27,0.01,0.02,0.00,25.15,27.07,29.65,5.83,29.46,1021.48,2052.08,3494.01,3357.19,3645.10,349.48,322.96,8.85,0000 0000 0000 0000 000000
2013-09-17 02:24:28,-0.00,0.02,0.00,25.16,27.07,29.65,5.69,29.50,1021.49,2052.07,3494.01,3357.14,3645.05,349.19,322.41,8.86,0000 0000 0000 0000 000000
2013-09-17 02:25:28,0.01,0.02,0.00,25.17,27.07,29.62,5.84,29.42,1021.48,2052.05,3494.00,3357.09,3645.02,350.14,322.96,8.87,0000 0000 0000 0000 000000
2013-09-17 02:26:28,-0.00,0.02,0.00,25.18,27.08,29.66,6.10,29.71,1021.49,2052.03,3494.00,3357.06,3645.01,350.98,324.05,8.87,0000 0000 0000 0000 000000
2013-09-17 02:27:29,-0.01,0.02,0.00,25.19,27.08,29.66,5.80,29.33,1021.49,2052.04,3494.00,3357.06,3645.00,349.67,322.83,8.88,0000 0000 0000 0000 000000
2013-09-17 02:28:29,0.01,0.02,0.00,25.18,27.08,29.61,6.04,29.42,1021.50,2052.04,3494.00,3357.06,3645.00,350.32,323.44,8.88,0000 0000 0000 0000 000000
2013-09-17 02:29:29,-0.01,0.02,0.00,25.19,27.09,29.71,5.86,29.38,1021.49,2052.01,3494.00,3357.05,3645.00,349.74,322.89,8.89,0000 0000 0000 0000 000000
2013-09-17 02:30:29,-0.01,0.02,0.00,25.19,27.09,29.64,6.01,29.58,1021.49,2052.00,3494.00,3357.03,3645.00,349.81,322.95,8.90,0000 0000 0000 0000 000000
2013-09-17 02:31:30,0.00,0.02,0.00,25.19,27.10,29.67,6.01,29.42,1021.49,2052.00,3493.99,3357.02,3645.00,350.16,323.62,8.90,0000 0000 0000 0000 000000
2013-09-17 02:32:30,0.01,0.02,0.00,25.20,27.10,29.68,6.06,29.63,1021.50,2052.04,3493.99,3357.05,3645.00,350.66,323.73,8.91,0000 0000 0000 0000 000000
2013-09-17 02:33:30,0.01,0.02,0.00,25.21,27.10,29.64,5.88,29.21,1021.50,2052.04,3493.99,3357.11,3645.00,350.11,323.22,8.91,0000 0000 0000 0000 000000
2013-09-17 02:34:31,0.00,0.02,0.00,25.20,27.10,29.63,5.94,29.58,1021.49,2052.03,3493.98,3357.09,3645.00,350.08,323.31,8.92,0000 0000 0000 0000 000000
2013-09-17 02:35:31,0.01,0.02,0.00,25.22,27.10,29.68,5.95,29.29,1021.50,2052.03,3493.99,3357.04,3645.00,350.10,323.19,8.92,0000 0000 0000 0000 000000
2013-09-17 02:36:31,0.02,0.02,0.00,25.23,27.10,29.68,5.97,29.79,1021.50,2052.09,3493.99,3357.03,3645.00,350.67,323.36,8.93,0000 0000 0000 0000 000000
2013-09-17 02:37:32,0.01,0.02,0.00,25.23,27.10,29.65,5.85,29.33,1021.50,2052.10,3493.99,3357.04,3645.00,349.89,323.35,8.94,0000 0000 0000 0000 000000